7 * 24
多渠道服务支持
BEIDOU-2 M6 是中国北斗二代卫星导航系统中的一颗中圆轨道(MEO)卫星,属于北斗区域导航系统的重要组成部分。该卫星主要承担定位、导航和授时功能,提升了系统的精度与稳定性。M6 卫星采用国产化技术,增强了中国在卫星导航领域的自主可控能力。其发射进一步完善了北斗系统的星座布局,为亚太地区提供更优质的导航服务,标志着中国在建设全球卫星导航系统方面取得重要进展。
中国
(CN)
| 数据来源 | 国际轨道数据 |
| 星历时间: | 2026-09-12T16:30:28+0800 20小时前 查看轨道信息 |
| 半长轴: | 27906.199km |
| 偏心率: | 0.0010965 |
| 轨道倾角: | 56.625° |
| 近地点辐角 | 4.259° |
| 升交点赤经 | 60.017° |
| 平近点角 | 355.767° |
| 近地点: | 21497.462km |
| 远地点: | 21558.662km |
| 周期: | 773.234分钟 |
| 每日圈数: | 1.862309 |